sat.trackr.live / text

‹ back to catalog

2024-016B

NORAD 58821 · 2024-016B

PAYLOAD ACTIVE UNKNOWN

§ Identity

Operator
Country
PRC
Launch date
2024-01-23
Launch site
JSC
Launch vehicle
Mass (kg)
RCS (m²)

External: N2YO · Heavens-Above · Gunter

§ Orbital elements

Epoch: 2026-05-25T05:58:42.456000Z

Period
91.83 min
Inclination
97.4464°
Eccentricity
0.0005620
Mean motion
15.68030396 rev/d
Perigee alt
360.7 km
Apogee alt
368.3 km
Semi-major
6,742.7 km
B*
9.0602e-4
RAAN
240.7400°
Arg perigee
157.4293°
Mean anomaly
202.7216°
Rev number
13,057

§ Raw data

2024-016B1 58821U 24016B   26145.24910250  .00101294  00000+0  90602-3 0  99942 58821  97.4464 240.7400 0005620 157.4293 202.7216 15.68030396130578

JSON: /api/v1/satellites/58821 · /tle

For live sub-satellite position, see the globe view (requires WebGL).

§ Visibility from observer

Set your observer location to see the next 7 days of passes ≥ 10°. The values pass through the URL so the page stays shareable.

No JS? Fill the form by hand. The geolocation button needs JavaScript.

§ Radio — SatNOGS DB

ModeDescriptionDownlinkUplink
FM Downlink 401.450 MHz

1 transmitter · refreshed weekly from db.satnogs.org